Skip Page Navigation
NASA JPL Caltech
NASA Logo - Jet Propulsion Laboratory + View the NASA Portal
+ Near-Earth Object (NEO) Program
Search JPL
JPL Home Earth Solar System Stars & Galaxies Technology
JPL Solar System Dynamics
BODIES ORBITS EPHEMERIDES TOOLS PHYSICAL DATA DISCOVERY FAQ SITE MAP
JPL Small-Body Database Browser
Search: [ help ]  
(2012 BX34)
Classification: Aten [NEO]          SPK-ID: 3596262
Ephemeris | Orbit Diagram | Orbital Elements | Physical Parameters | Close-Approach Data ]

[ hide orbit diagram ]
Orbit Diagram
Note: Make sure you have Java enabled on your browser to see the applet. This applet is provided as a 3D orbit visualization tool. The applet was implemented using 2-body methods, and hence should not be used for determining accurate long-term trajectories (over several years or decades) or planetary encounter circumstances. For accurate long-term ephemerides, please instead use our Horizons system.
Orbit Viewer

Additional Notes: the orbits shown in the applet are color coded. The planets are white lines, and the asteroid/comet is a blue line. The bright white line indicates the portion of the orbit that is above the ecliptic plane, and the darker portion is below the ecliptic plane. Likewise for the asteroid/comet orbit, the light blue indicates the portion above the ecliptic plane, and the dark blue the portion below the ecliptic plane.

Orbit Viewer applet originally written and kindly provided by Osamu Ajiki (AstroArts), and further modified by Ron Baalke (JPL).


Orbital Elements at Epoch 2456400.5 (2013-Apr-18.0) TDB
Reference: JPL 14 (heliocentric ecliptic J2000)
 Element Value Uncertainty (1-sigma)   Units 
e .3566481356430365 6.4744e-07  
a .7619245917448484 4.613e-07 AU
q .4901856065984664 7.6995e-07 AU
i 10.53555418030172 4.5492e-05 deg
node 306.7989000418715 7.1818e-07 deg
peri 335.6627232947364 8.8047e-05 deg
M 168.1726993797975 0.00051745 deg
tp 2456287.019978913810
(2012-Dec-25.51997891)
0.00024862 JED
period 242.9217568707001
0.67
0.00022061
6.04e-07
d
yr
n 1.481958654661044 1.3459e-06 deg/d
Q 1.03366357689123 6.2583e-07 AU
  Orbit Determination Parameters
   # obs. used (total)      114  
   # delay obs. used      0  
   # Doppler obs. used      1  
   data-arc span      2 days  
   first obs. used      2012-01-25  
   last obs. used      2012-01-27  
   planetary ephem.      DE405  
   SB-pert. ephem.      SB405-CPV-2  
   condition code      3  
   fit RMS      .68702  
   data source      ORB  
   producer      Otto Matic  
   solution date      2012-Feb-06 23:50:28  

Additional Information
 Earth MOID = 1.05909E-5 AU 
 T_jup = 7.532 
[ show covariance matrix ]

Ephemeris | Orbit Diagram | Orbital Elements | Physical Parameters | Close-Approach Data ]

Physical Parameter Table
Parameter Symbol Value Units Sigma Reference Notes
absolute magnitude H 27.619 mag .33445 14 autocmod 2.5b
rotation period rot_per 1.80828 h n/a Asteroid Lightcurve DataBase (Rev. 2013-May-01) Published Reference List:
[Ryan, W. (2012) http://infohost.nmt.edu/~bryan/research/work/ mro_images/]

[ show close-approach data ]
Ephemeris | Orbit Diagram | Orbital Elements | Physical Parameters | Close-Approach Data ]
ABOUT SSD CREDITS/AWARDS PRIVACY/COPYRIGHT GLOSSARY LINKS
FirstGov 2013-Jun-19 11:40 UT
(server date/time)  
NASA Home Page
Site Manager:   Donald K. Yeomans
Webmaster  Alan B. Chamberlin